Location: Cugy
(46.8146°N, 6.8907°E)
Time: 07:02:10
(UTC+00:00)

Daily predictions for brighter satellites

Satellite Brightness Start Highest point End
(mag) Time Altitude Azimuth Time Altitude Azimuth Time Altitude Azimuth
CZ-2C R/B 4.4 16:49:21 10° ESE 16:53:40 22° ENE 16:57:52 10° NNE
SMAP 3.1 16:49:20 10° SSE 16:53:59 85° ENE 16:58:40 10° NNW
Meteor 2-14 Rocket 4.5 16:48:05 10° N 16:54:15 68° E 17:00:19 10° SSE
Cosmos 2219 3.7 16:49:28 10° NNW 16:54:54 41° NE 17:00:18 10° SE
Cosmos 1726 Rocket 4.0 16:52:47 10° SSE 16:56:50 39° E 17:00:56 10° NNE
Cosmos 1943 Rocket 4.5 16:53:03 10° W 16:56:50 18° NW 17:00:38 10° N
Cosmos 1758 Rocket 3.6 16:55:15 10° N 16:59:41 90° WSW 17:04:02 10° S
USA 307 3.8 16:56:40 10° NW 17:00:39 35° NNE 17:04:36 10° E
Meteor 2-21 4.4 16:54:45 10° N 17:00:56 80° E 17:07:02 10° SSE
Cosmos 1328 4.1 16:57:16 10° NNW 17:01:13 73° W 17:05:09 10° S
FALCON 9 DEB 3.5 17:00:35 10° SW 17:03:42 45° SE 17:06:44 11° ENE
Cosmos 2228 3.0 16:59:39 10° S 17:03:50 63° E 17:08:06 10° NNE
YAOGAN 6 3.5 17:00:43 10° S 17:04:17 54° W 17:07:55 10° NNW
Cosmos 1939 Rocket 3.4 17:01:24 10° SE 17:05:00 35° ENE 17:08:35 10° N
USA 308 3.8 17:01:32 10° NW 17:05:31 36° NNE 17:09:20 11° E
CZ-4B R/B 1.3 17:02:43 10° NNE 17:05:55 56° ESE 17:08:59 10° S
ATLAS 5 CENTAUR R/B 3.8 17:04:25 10° WNW 17:07:28 18° NNW 17:10:49 10° NNE
Helios 1A Rocket 3.7 17:08:36 10° SE 17:12:14 31° ENE 17:15:51 10° N
Cosmos 1606 Rocket 3.5 17:08:02 10° S 17:12:22 74° E 17:16:48 10° NNE
GENESIS II 4.3 17:11:09 10° SW 17:15:11 83° NW 17:19:15 10° NE
FALCON 9 DEB 3.1 17:12:09 10° SW 17:15:20 60° SE 17:17:56 14° ENE
CZ-4B R/B 4.0 17:10:34 10° S 17:16:06 59° WSW 17:21:34 10° NNW
Okean-O 3.3 17:14:42 10° SE 17:18:41 33° ENE 17:22:41 10° N
SKYMED 2 3.9 17:15:55 10° NNE 17:20:04 42° E 17:24:11 10° S
Cosmos 1656 4.2 17:16:11 10° S 17:21:16 38° ESE 17:26:28 10° NE
Cosmos 1689 Rocket 2.7 17:18:39 10° NNE 17:21:17 31° E 17:23:54 10° SSE
Cosmos 1400 Rocket 3.1 17:20:11 10° S 17:24:07 46° E 17:28:03 10° NNE
H-2A R/B 3.0 17:22:06 10° ESE 17:26:37 28° ENE 17:31:09 10° N
PSLV R/B 4.3 17:24:23 10° NNE 17:28:22 41° E 17:32:17 10° S
GEOS 3 Rocket 4.4 17:24:32 13° E 17:28:49 36° NE 17:33:44 10° NNW
Cosmos 2227 Rocket 2.3 17:23:23 10° NNW 17:28:57 54° ENE 17:34:30 10° SE
CZ-4 R/B 1.9 17:25:26 10° SE 17:28:58 34° ENE 17:32:30 10° N
Cosmos 2058 3.8 17:26:10 10° NNE 17:29:42 27° ENE 17:33:14 10° SE
Meteor 2-16 Rocket 4.4 17:23:51 10° N 17:29:59 85° E 17:36:05 10° S
Cosmos 1892 3.2 17:27:29 10° N 17:31:07 36° ENE 17:34:43 10° SE
Cosmos 2263 Rocket 3.9 17:30:42 10° N 17:33:57 15° NE 17:35:34 14° ENE
CSL-04 Rocket 4.4 17:30:01 10° SE 17:34:53 33° ENE 17:39:45 10° N
Cosmos 1408 3.5 17:32:08 10° NNE 17:35:16 26° ENE 17:37:15 17° ESE
BREEZE-M R/B 3.9 17:25:54 10° W 17:35:17 66° N 17:37:09 22° ENE
Cosmos 1244 Rocket 4.4 17:31:21 10° N 17:37:35 82° E 17:43:51 10° S
CZ-4C R/B 4.1 17:35:22 10° NNW 17:40:17 22° NNE 17:44:24 14° ENE
Cosmos 1953 Rocket 4.1 17:37:37 10° NNW 17:42:00 64° W 17:46:23 10° S
Cosmos 1300 3.2 17:38:44 10° SSW 17:42:30 62° W 17:46:18 10° N
Cosmos 2058 Rocket 3.0 17:41:17 10° S 17:45:46 82° E 17:50:17 10° N
Cosmos 1697 Rocket 3.3 17:40:57 10° SSE 17:45:54 33° ESE 17:49:37 16° NE
SL-4 R/B 2.5 17:44:10 10° WNW 17:47:33 39° N 17:49:04 26° NE
IRS-1C Rocket 4.1 17:42:25 10° SSE 17:47:42 84° WSW 17:53:01 10° NNW
CZ-2D R/B 3.1 17:44:04 10° SSE 17:47:52 76° ENE 17:51:41 10° N
SeaSat 1 3.4 17:46:27 23° E 17:48:18 29° NE 17:52:30 10° N
Cosmos 1346 Rocket 3.0 17:46:12 10° N 17:50:03 45° ENE 17:53:53 10° SSE
NOSS 3-3 (A) 4.4 17:45:17 10° S 17:50:32 38° ESE 17:54:18 20° ENE
NOSS 3-3 (C) 4.4 17:45:22 10° S 17:50:40 38° ESE 17:54:24 20° ENE
USA 305 3.2 17:47:25 10° NW 17:51:37 51° NNE 17:53:27 30° E
Cosmos 1825 3.2 17:48:59 10° NNE 17:51:37 26° NE 17:51:37 26° NE
IRS-P2 Rocket 4.5 17:48:07 10° SSE 17:53:20 78° ENE 17:58:40 10° NNW
Cosmos 44 3.7 17:49:54 10° SW 17:54:21 58° NW 17:59:04 10° NNE
Cosmos 1315 Rocket 3.3 17:51:43 10° SSE 17:55:19 35° E 17:56:19 30° ENE
USA 215 4.0 17:51:39 20° ENE 17:55:40 40° NNE 18:01:40 10° NW
USA 306 3.1 17:53:49 10° NW 17:58:03 54° NNE 17:59:35 34° E
ERS-2 4.2 17:56:10 10° N 17:59:20 28° WNW 18:02:29 10° SW
SAR-Lupe-4 4.5 17:55:52 10° N 17:59:21 50° WNW 18:02:49 10° SSW
BREEZE-M R/B 3.7 17:57:35 10° WNW 18:01:30 68° NNE 18:05:18 27° E
ATLAS 2AS CENTAUR R/B 3.7 17:55:22 10° NW 18:02:12 33° NNE 18:05:17 24° ENE
Cosmos 968 Rocket 3.4 17:59:09 10° NNW 18:04:25 85° ENE 18:09:36 10° SSE
Cosmos 1340 3.3 18:01:13 10° NNW 18:04:57 57° W 18:08:38 10° S
COSMO-SKYMED 1 3.0 18:03:53 10° N 18:08:11 62° WNW 18:12:27 10° SSW
Cosmos 1980 Rocket 3.3 18:03:59 10° SSE 18:07:19 25° SE 18:07:19 25° SE
Cosmos 2297 Rocket 2.6 18:03:14 10° NNW 18:08:51 66° WSW 18:14:26 10° SSE
MOS 1 Rocket 3.5 18:04:26 10° NNE 18:08:58 47° E 18:13:45 10° S
Cosmos 1076 Rocket 3.5 18:05:55 10° N 18:10:06 53° ENE 18:11:35 34° SE
In-Cosmos 22 Rocket 4.4 18:05:49 10° NNW 18:11:09 68° W 18:16:33 10° S
Aureole 3 Rocket 3.8 18:07:30 10° SSW 18:11:25 59° WNW 18:16:54 10° N
Cosmos 2315 Rocket 4.4 18:09:13 10° SSE 18:14:51 38° E 18:20:30 10° NNE
CSL-04 Debris 4.1 18:09:47 10° SSE 18:15:10 69° ENE 18:20:38 10° N
S3M 3.8 18:09:11 10° S 18:15:15 73° E 18:21:25 10° NNE
Lacrosse 5 3.2 18:17:54 10° NW 18:22:10 26° N 18:23:30 23° NNE
FALCON 9 DEB 4.2 18:19:19 10° NW 18:22:07 35° N 18:22:07 35° N
YAOGAN 1 2.7 18:18:38 10° S 18:22:56 72° WSW 18:27:17 10° NNW
FALCON 9 DEB 3.7 18:20:24 10° W 18:23:30 45° NNW 18:23:30 45° NNW
Cosmos 2360 4.3 18:19:08 10° S 18:24:39 51° ESE 18:26:15 40° ENE
Cosmos 1486 Rocket 4.4 18:19:35 10° NNW 18:24:53 64° WSW 18:30:07 10° S
FALCON 9 DEB 4.0 18:24:41 10° W 18:27:30 41° NNW 18:27:30 41° NNW
Cosmos 1812 Rocket 3.4 18:25:47 10° S 18:30:10 70° E 18:30:37 64° NE
Cosmos 1455 2.1 18:27:11 10° S 18:30:57 85° W 18:31:13 76° N
CZ-2C R/B 3.6 18:27:15 10° S 18:33:01 69° WSW 18:38:40 10° NNW
Cosmos 1503 Rocket 3.9 18:29:29 10° NNW 18:34:45 89° WSW 18:37:12 33° SSE
Cosmos 44 Rocket 4.2 18:32:30 10° SSW 18:35:27 33° SSE 18:35:27 33° SSE
Cosmos 2278 4.1 18:32:29 10° S 18:36:45 42° SE 18:36:45 42° SE
DMSP B5D1-3 4.4 18:34:16 10° NNE 18:39:27 88° WNW 18:44:36 10° SSW
USA 307 2.9 18:36:47 10° WNW 18:40:52 81° NW 18:40:52 81° NW
Meteor 2-10 Rocket 3.9 18:39:09 10° SSW 18:44:25 62° WNW 18:49:31 10° N
USA 308 3.0 18:41:37 10° WNW 18:45:31 72° WNW 18:45:31 72° WNW
Cosmos 1354 Rocket 4.0 18:41:02 10° NNW 18:46:18 82° WSW 18:47:53 47° S
Cosmos 2082 3.9 18:42:14 10° NNW 18:47:57 70° WSW 18:50:45 31° S
ATLAS 5 CENTAUR R/B 4.3 18:52:10 10° NNW 18:54:12 12° N 18:55:01 12° NNE
Cosmos 1992 Rocket 4.4 18:51:25 10° SW 18:56:34 62° WNW 18:59:48 23° N
ARGOS 3.2 18:54:41 38° S 18:56:53 78° WSW 19:02:21 10° NNW
Cosmos 2369 3.7 18:55:48 10° SSW 19:01:32 79° WNW 19:03:10 48° NNE
CZ-4 R/B 3.9 19:01:11 10° SW 19:04:06 20° W 19:07:02 10° NW
H-2A R/B 3.0 19:00:31 10° S 19:05:45 50° W 19:11:04 10° NNW
Ariane Rocket 4.0 19:07:51 36° N 19:07:51 36° N 19:10:53 10° N
GEOS 3 Rocket 4.1 19:05:41 50° SSW 19:06:38 58° SW 19:11:59 10° NW
Geosat 4.5 19:06:43 41° N 19:08:13 57° NW 19:13:07 10° SW
Cosmos 2227 Rocket 4.2 19:08:04 10° NW 19:12:39 26° WSW 19:17:13 10° SSW
Cosmos 2263 Rocket 3.0 19:13:24 10° NNW 19:17:16 42° N 19:17:16 42° N
Atlas Centaur 2 4.3 19:13:18 10° SW 19:19:47 25° S 19:20:08 25° S
SeaSat 1 3.3 19:26:15 48° W 19:26:15 48° W 19:30:25 10° NW
Cosmos 1697 Rocket 3.7 19:24:22 10° SW 19:29:43 44° NW 19:31:25 34° NNW
CZ-4C R/B 3.4 19:23:51 10° NNW 19:29:36 45° NNE 19:29:36 45° NNE
NOSS 3-4 (A) 3.7 19:24:51 10° NW 19:31:39 85° NNW 19:31:39 85° NNW
NOSS 3-4 (C) 3.7 19:24:58 10° NW 19:31:43 84° NNW 19:31:43 84° NNW
DEBRIS 4.2 19:23:29 10° WSW 19:36:50 74° WNW 19:36:50 74° WNW
USA 215 3.4 19:39:00 65° NNW 19:39:00 65° NNW 19:44:42 10° NW
Cosmos 1980 Rocket 3.9 19:46:49 10° SW 19:49:11 25° WSW 19:49:11 25° WSW
ATLAS 2AS CENTAUR R/B 3.1 19:46:32 10° NW 19:52:43 63° NW 19:52:43 63° NW
Lacrosse 5 4.2 20:01:11 10° NW 20:02:41 19° NW 20:02:41 19° NW
